ROMMA est une association bénévole à but non lucratif. Votre soutien est indispensable : ADHERER à ROMMA ou FAIRE un DON

Voiron - (38, Isère)

Voironnais (300 m)   Longitude: 05° 35' E   Latitude: 45° 23' N Station partenaire n°109
 

Détail journalier du     <<     >>

Température Precipitation Humidité Pression Vent Dir Rafale Dir. rafale Ensol.
Heure (°C) (mm) (%) (hPa) (km/h) (km/h) (min)
01:00 16.308710201S8S0
02:00 14.8090101903SSO0
03:00 14.109210191SSO3SSO0
04:00 13.6092101905OSO0
05:00 13.209310191O5O0
06:00 12.8094101805O0
07:00 13.209410182ONO5ONO0
08:00 12.909410182SSO8SSO0
09:00 13.009410181NO5NO0
10:00 14.808810192SSE6SO60
11:00 16.908110192SSE8SSE60
12:00 18.807410182SE10ESE60
13:00 20.206910173ESE11SE60
14:00 21.806310154SE18SSE60
15:00 22.806110156SSO18S60
16:00 23.705810146SSO19SO60
17:00 24.205910135S18OSO60
18:00 23.206210133SE15SE0
19:00 22.006510133ESE11SSE30
20:00 20.407310134SSO18SO0
21:00 18.807910132O15SO0
22:00 17.408410122ONO6ONO0
23:00 16.908610122NO6SE0
minuit 18.207910104O18NNE0

Graphique du 14-10-2019

 

Serveur OMMA